KINEIS-5B

Last updated on Mon Dec 15 2025 00:02:49 GMT+0000 (Coordinated Universal Time)

1 62085U 24219E 25348.36877642 .00002560 00000+0 36489-3 0 9999 2 62085 97.9844 148.5708 0002708 127.1778 232.9680 14.77654975 56700
UTC large
Height (km)
Speed (km/s)
/
Latitude / Longitude
Inclination (degrees)
Orbital Period (minutes)
Azimuth
Elevation
Range (km)
Doppler Factor

Next 0 passes for location: London (51.5072 / 0.1276)

Sorry there are no passes over London.